Date String (YYYY-MM-DD hh:mm:ss) UTC,Instrument flags,absolute air pressure of the measurement (hPa),sample flow rate (lpm),inlet stack bypass flow (lpm),air temperature of the measurement (°C),ambient temperature measured by the external sensor (°C),aerosol sample conditioner tube jacket temperature (°C),OPC LED temperature (°C),internal box temperature (°C),relative humidity of the measurement (%),span deviation,mass concentration of particles derived from Lorenz-Mie calculation of OPC scattering (μg/m³),mass concentration of particles derived from Lorenz-Mie calculation of OPC scattering (μg/m³),mass concentration of particles derived from Lorenz-Mie calculation of OPC scattering (μg/m³)
DateTimeUTC,F1_M11,P_M11,Q1_M11,Q2_M11,T1_M11,T2_M11,T3_M11,T4_M11,T5_M11,U1_M11,ZSPAN_M11,X2_M11,X0_M11,X1_M11
2024-05-09 01:00:00,SystemResetWarning,0824.4,5.00,000.00,026.1,025.4,000.0,034.4,027.9,008.6,0000.0,0000.52,0003.16,0000.29
2024-05-09 01:01:00,SystemResetWarning,0824.4,5.01,000.00,026.1,025.4,000.0,034.4,027.9,008.6,0000.0,0000.50,0003.16,0000.29
2024-05-09 01:02:00,SystemResetWarning,0824.4,5.00,000.00,026.2,025.4,000.0,034.4,027.9,008.4,0000.0,0000.52,0003.21,0000.29
2024-05-09 01:03:00,SystemResetWarning,0824.3,5.00,000.00,026.2,025.4,000.0,034.4,027.9,008.4,0000.0,0000.52,0003.16,0000.29
2024-05-09 01:04:00,SystemResetWarning,0824.4,4.99,000.00,026.2,025.4,000.0,034.4,027.9,008.3,0000.0,0000.50,0003.12,0000.28
2024-05-09 01:05:00,SystemResetWarning,0824.4,5.00,000.00,026.2,025.4,000.0,034.4,027.9,008.4,0000.0,0000.48,0003.08,0000.27
2024-05-09 01:06:00,SystemResetWarning,0824.4,5.00,000.00,026.2,025.4,000.0,034.4,027.9,008.5,0000.0,0000.47,0003.07,0000.27
2024-05-09 01:07:00,SystemResetWarning,0824.4,5.01,000.00,026.2,025.5,000.0,034.4,027.9,008.3,0000.0,0000.46,0002.75,0000.27
2024-05-09 01:08:00,SystemResetWarning,0824.5,5.00,000.00,026.2,025.5,000.0,034.4,027.9,008.3,0000.0,0000.44,0000.93,0000.27
2024-05-09 01:09:00,SystemResetWarning,0824.5,5.00,000.00,026.2,025.5,000.0,034.4,027.9,008.3,0000.0,0000.43,0000.87,0000.27
2024-05-09 01:10:00,SystemResetWarning,0824.5,4.99,000.00,026.2,025.5,000.0,034.4,027.9,008.3,0000.0,0000.45,0001.15,0000.27
2024-05-09 01:11:00,SystemResetWarning,0824.5,5.01,000.00,026.2,025.5,000.0,034.4,028.0,008.3,0000.0,0000.45,0001.12,0000.27
2024-05-09 01:12:00,SystemResetWarning,0824.5,5.02,000.00,026.2,025.5,000.0,034.4,028.0,008.4,0000.0,0000.45,0001.10,0000.27
2024-05-09 01:13:00,SystemResetWarning,0824.6,5.00,000.00,026.2,025.5,000.0,034.4,027.9,008.4,0000.0,0000.41,0000.99,0000.27
2024-05-09 01:14:00,SystemResetWarning,0824.6,4.99,000.00,026.2,025.5,000.0,034.4,027.9,008.3,0000.0,0000.42,0001.02,0000.27
2024-05-09 01:15:00,SystemResetWarning,0824.6,5.00,000.00,026.2,025.5,000.0,034.4,028.0,008.4,0000.0,0000.43,0001.04,0000.28
2024-05-09 01:16:00,SystemResetWarning,0824.6,5.01,000.00,026.2,025.5,000.0,034.4,027.9,008.3,0000.0,0000.46,0001.20,0000.28
2024-05-09 01:17:00,SystemResetWarning,0824.6,5.00,000.00,026.2,025.5,000.0,034.4,027.9,008.4,0000.0,0000.47,0001.22,0000.29
2024-05-09 01:18:00,SystemResetWarning,0824.7,5.00,000.00,026.2,025.5,000.0,034.4,028.0,008.4,0000.0,0000.49,0001.34,0000.29
2024-05-09 01:19:00,SystemResetWarning,0824.7,4.99,000.00,026.2,025.5,000.0,034.4,027.9,008.3,0000.0,0000.49,0001.40,0000.29
2024-05-09 01:20:00,SystemResetWarning,0824.7,5.00,000.00,026.2,025.5,000.0,034.4,027.9,008.4,0000.0,0000.50,0001.65,0000.28
2024-05-09 01:21:00,SystemResetWarning,0824.7,5.00,000.00,026.2,025.5,000.0,034.4,027.9,008.4,0000.0,0000.52,0001.48,0000.28
2024-05-09 01:22:00,SystemResetWarning,0824.7,5.00,000.00,026.2,025.5,000.0,034.4,027.9,008.4,0000.0,0000.53,0001.54,0000.28
2024-05-09 01:23:00,SystemResetWarning,0824.7,5.01,000.00,026.2,025.5,000.0,034.4,027.9,008.4,0000.0,0000.55,0001.65,0000.29
2024-05-09 01:24:00,SystemResetWarning,0824.7,5.00,000.00,026.2,025.4,000.0,034.4,028.0,008.4,0000.0,0000.56,0001.65,0000.28
2024-05-09 01:25:00,SystemResetWarning,0824.7,5.01,000.00,026.2,025.4,000.0,034.4,027.9,008.4,0000.0,0000.53,0001.61,0000.28
2024-05-09 01:26:00,SystemResetWarning,0824.7,4.99,000.00,026.2,025.4,000.0,034.4,027.9,008.4,0000.0,0000.52,0001.58,0000.27
2024-05-09 01:27:00,SystemResetWarning,0824.7,4.99,000.00,026.2,025.4,000.0,034.4,027.9,008.5,0000.0,0000.50,0001.44,0000.27
2024-05-09 01:28:00,SystemResetWarning,0824.7,5.00,000.00,026.2,025.4,000.0,034.4,027.9,008.5,0000.0,0000.50,0001.44,0000.27
2024-05-09 01:29:00,SystemResetWarning,0824.8,5.01,000.00,026.2,025.5,000.0,034.4,027.9,008.5,0000.0,0000.51,0001.45,0000.28
2024-05-09 01:30:00,SystemResetWarning,0824.7,5.01,000.00,026.2,025.5,000.0,034.4,027.9,008.5,0000.0,0000.53,0001.48,0000.28
2024-05-09 01:31:00,SystemResetWarning,0824.7,5.00,000.00,026.2,025.5,000.0,034.4,027.9,008.6,0000.0,0000.54,0001.24,0000.28
2024-05-09 01:32:00,SystemResetWarning,0824.7,5.00,000.00,026.2,025.5,000.0,034.4,027.9,008.7,0000.0,0000.55,0001.44,0000.29
2024-05-09 01:33:00,SystemResetWarning,0824.7,4.98,000.00,026.2,025.5,000.0,034.4,027.9,008.6,0000.0,0000.55,0001.68,0000.29
2024-05-09 01:34:00,SystemResetWarning,0824.7,4.99,000.00,026.2,025.5,000.0,034.4,028.0,008.6,0000.0,0000.51,0001.57,0000.29
2024-05-09 01:35:00,SystemResetWarning,0824.7,5.00,000.00,026.2,025.5,000.0,034.4,028.0,008.5,0000.0,0000.50,0001.63,0000.29
2024-05-09 01:36:00,SystemResetWarning,0824.8,5.01,000.00,026.2,025.5,000.0,034.4,028.0,008.5,0000.0,0000.52,0001.70,0000.29
2024-05-09 01:37:00,SystemResetWarning,0824.8,5.01,000.00,026.2,025.4,000.0,034.4,028.0,008.5,0000.0,0000.54,0001.73,0000.30
2024-05-09 01:38:00,SystemResetWarning,0824.8,4.99,000.00,026.2,025.4,000.0,034.4,027.9,008.6,0000.0,0000.54,0001.73,0000.30
2024-05-09 01:39:00,SystemResetWarning,0824.8,4.99,000.00,026.2,025.4,000.0,034.4,027.9,008.6,0000.0,0000.53,0001.70,0000.30
2024-05-09 01:40:00,SystemResetWarning,0824.8,4.99,000.00,026.2,025.5,000.0,034.4,028.0,008.6,0000.0,0000.52,0001.59,0000.29
2024-05-09 01:41:00,SystemResetWarning,0824.8,5.00,000.00,026.2,025.4,000.0,034.4,027.9,008.6,0000.0,0000.49,0002.66,0000.29
2024-05-09 01:42:00,SystemResetWarning,0824.9,5.01,000.00,026.2,025.4,000.0,034.4,027.9,008.6,0000.0,0000.48,0003.29,0000.29
2024-05-09 01:43:00,SystemResetWarning,0824.9,5.01,000.00,026.2,025.4,000.0,034.4,028.0,008.5,0000.0,0000.43,0002.97,0000.29
2024-05-09 01:44:00,SystemResetWarning,0824.9,5.00,000.00,026.2,025.4,000.0,034.4,028.0,008.6,0000.0,0000.42,0002.65,0000.29
2024-05-09 01:45:00,SystemResetWarning,0824.9,4.98,000.00,026.2,025.4,000.0,034.4,028.0,008.6,0000.0,0000.45,0002.70,0000.30
2024-05-09 01:46:00,SystemResetWarning,0824.9,5.00,000.00,026.2,025.4,000.0,034.4,027.9,008.7,0000.0,0000.46,0002.63,0000.31
2024-05-09 01:47:00,SystemResetWarning,0824.9,5.01,000.00,026.2,025.4,000.0,034.4,027.9,008.7,0000.0,0000.44,0002.55,0000.31
2024-05-09 01:48:00,SystemResetWarning,0824.9,5.01,000.00,026.2,025.4,000.0,034.4,027.9,008.7,0000.0,0000.44,0002.56,0000.30
2024-05-09 01:49:00,SystemResetWarning,0824.9,5.01,000.00,026.2,025.4,000.0,034.4,027.9,008.7,0000.0,0000.44,0002.59,0000.30
2024-05-09 01:50:00,SystemResetWarning,0824.9,4.98,000.00,026.2,025.4,000.0,034.4,027.9,008.7,0000.0,0000.45,0002.67,0000.30
2024-05-09 01:51:00,SystemResetWarning,0824.9,4.99,000.00,026.2,025.4,000.0,034.4,027.9,008.7,0000.0,0000.45,0002.75,0000.29
2024-05-09 01:52:00,SystemResetWarning,0824.9,5.00,000.00,026.2,025.4,000.0,034.4,027.9,008.7,0000.0,0000.45,0001.88,0000.29
2024-05-09 01:53:00,SystemResetWarning,0824.9,5.01,000.00,026.2,025.4,000.0,034.4,027.9,008.7,0000.0,0000.43,0000.92,0000.29
2024-05-09 01:54:00,SystemResetWarning,0824.9,5.01,000.00,026.2,025.4,000.0,034.4,027.9,008.6,0000.0,0000.43,0000.90,0000.29
2024-05-09 01:55:00,SystemResetWarning,0824.9,5.00,000.00,026.2,025.4,000.0,034.4,027.9,008.7,0000.0,0000.44,0000.96,0000.29
2024-05-09 01:56:00,SystemResetWarning,0824.9,4.99,000.00,026.2,025.4,000.0,034.4,027.9,008.7,0000.0,0000.45,0000.97,0000.28
2024-05-09 01:57:00,SystemResetWarning,0825.0,5.00,000.00,026.2,025.4,000.0,034.4,027.9,008.7,0000.0,0000.45,0000.98,0000.27
2024-05-09 01:58:00,SystemResetWarning,0825.1,5.00,000.00,026.2,025.4,000.0,034.4,027.9,008.7,0000.0,0000.47,0001.01,0000.27
2024-05-09 01:59:00,SystemResetWarning,0825.1,5.00,000.00,026.2,025.4,000.0,034.4,027.9,008.7,0000.0,0000.48,0001.42,0000.27
